Wind_Speed
7 7 7 8 8 9 9 9 8 8 8 8 8 9 10 11 11 12 12 12 12 13 14 15 16 16 16 16 17 17 18 19 19 20 22 22 23 23 23 22 23 24 24
9 8 8 9 9 10 10 9 9 9 8 8 8 9 10 11 12 12 12 12 13 14 14 14 15 16 16 17 17 18 18 20 21 22 23 23 23 24 24 24 25 26 26
9 9 9 10 11 11 10 9 9 9 9 8 9 10 11 11 11 12 12 13 13 14 14 15 15 16 16 17 17 18 19 20 21 22 23 24 24 25 25 26 26 26 26
9 9 10 11 11 11 11 10 10 10 10 10 10 11 11 12 12 12 13 13 13 14 14 14 15 16 17 18 18 19 19 20 21 22 23 23 25 26 25 26 26 26 26
10 10 10 11 11 11 10 10 11 11 11 11 11 12 12 12 12 12 13 13 14 14 14 15 15 16 17 18 19 19 20 21 22 23 23 24 25 26 26 26 26 26 27
11 11 11 11 11 11 11 12 12 12 12 12 12 12 13 13 13 13 13 14 14 14 14 14 15 16 17 18 20 20 21 22 23 23 24 24 25 25 26 26 27 27 28
13 13 13 13 13 13 13 13 13 13 13 13 13 14 14 14 14 14 15 15 15 15 15 15 16 17 17 19 20 21 22 22 23 23 23 24 25 25 26 27 27 28 28
14 14 15 15 15 15 15 15 15 15 15 15 15 15 15 15 15 16 16 17 17 17 17 17 18 18 19 20 21 21 21 22 22 22 23 24 24 25 26 27 28 28 29
16 15 16 16 16 17 17 17 16 16 16 16 17 16 16 16 16 16 16 17 17 18 19 19 19 20 21 21 21 21 22 23 23 24 24 25 26 27 27 28 28 29 29
18 18 18 18 18 19 19 19 18 18 18 18 18 18 17 17 17 17 17 17 18 19 20 21 21 21 22 22 22 23 23 24 24 25 26 26 27 27 28 28 29 29 29
21 21 21 21 21 21 21 20 20 20 20 20 20 19 20 19 19 19 19 19 20 20 21 21 22 22 23 23 23 24 24 25 25 26 27 27 27 27 28 28 29 30 30
23 23 23 23 23 23 23 22 22 22 22 22 22 21 21 21 21 21 22 22 22 22 23 23 23 24 24 24 24 25 25 26 26 27 27 27 28 28 28 29 30 31 31
26 26 26 25 25 25 25 25 25 25 25 25 24 24 24 23 23 23 23 24 24 24 24 24 24 25 25 25 26 26 26 27 27 28 28 28 29 29 30 31 31 32 32
28 28 27 27 27 27 27 27 27 27 27 27 26 25 25 25 25 25 25 25 26 26 26 26 26 26 26 27 27 27 27 28 28 29 29 29 30 30 31 31 32 32 33
30 30 29 29 28 28 28 28 29 28 28 28 28 27 27 28 27 27 27 27 27 27 27 27 27 28 28 28 28 28 28 28 29 29 30 31 31 31 31 32 32 32 33
32 31 31 31 30 30 30 30 30 29 30 30 30 30 30 30 30 29 29 29 29 29 28 28 29 29 29 29 29 29 29 30 30 30 30 31 31 31 31 32 32 32 32
34 34 33 33 33 32 31 32 31 31 30 31 31 31 31 31 30 30 30 30 30 29 29 29 29 29 29 30 30 30 31 30 30 31 31 31 31 31 31 31 32 32 32
35 35 35 35 34 33 33 33 32 32 32 32 32 32 31 31 31 31 31 30 30 30 30 30 30 30 30 30 30 30 31 31 31 31 31 31 31 31 31 31 32 31 31
36 36 36 35 35 35 34 33 33 33 32 32 32 32 31 31 31 31 30 30 30 30 30 30 30 30 30 30 31 31 31 31 32 32 32 32 31 31 31 31 31 30 30
37 37 37 37 36 36 35 34 34 34 33 33 33 32 32 31 31 32 31 31 31 31 31 31 31 31 31 31 31 31 32 32 32 32 31 31 31 31 31 31 30 30 29
38 38 38 37 36 36 35 35 35 34 34 34 33 33 33 32 32 32 31 31 31 32 32 32 32 31 32 32 32 32 33 32 32 31 31 31 31 30 30 30 30 29 29
38 37 37 37 37 36 36 35 35 34 34 34 33 33 33 32 32 32 32 32 32 32 32 32 32 32 32 32 32 32 32 32 31 31 31 31 30 30 30 30 30 29 29
37 37 37 37 36 36 35 35 35 34 34 34 33 34 33 33 33 32 32 33 33 33 33 33 33 33 33 33 33 32 32 32 32 32 31 31 30 30 30 30 30 29 29
37 36 36 36 36 36 35 35 34 34 34 33 34 34 33 32 33 33 33 33 33 33 33 33 32 33 33 33 33 33 33 33 32 32 32 31 31 30 30 30 30 29 29
36 36 36 35 35 35 35 34 34 34 34 34 34 34 33 33 33 33 33 32 32 32 32 33 32 33 33 33 33 33 33 33 33 33 33 32 31 30 30 30 29 29 29
34 34 34 34 33 33 33 33 33 33 33 33 33 33 33 33 33 32 32 31 31 32 33 33 32 32 33 33 33 33 33 33 33 33 32 32 31 31 30 30 30 30 29
Wind_Direction
353 349 350 346 341 337 333 330 331 327 317 302 295 290 290 292 287 285 281 278 278 280 279 276 274 276 278 280 278 277 277 277 279 280 283 283 282 282 282 284 282 280 281
350 349 348 343 339 336 332 330 331 329 325 314 309 300 297 297 293 287 286 282 280 281 281 281 280 279 279 282 280 278 278 281 282 282 283 286 285 284 283 283 283 283 281
348 345 344 340 335 335 332 327 327 323 320 316 310 306 303 301 298 293 290 287 284 282 282 284 283 281 280 283 281 281 281 282 284 284 286 288 287 288 288 285 285 285 284
343 344 342 339 336 334 328 322 320 319 316 315 311 308 306 303 300 298 296 293 287 285 285 286 283 283 284 285 286 285 284 285 285 286 287 288 288 288 288 288 286 285 287
335 336 336 335 335 334 329 322 318 318 318 315 311 309 305 302 299 297 298 298 293 289 287 286 285 285 287 288 288 287 286 285 286 287 288 289 288 288 288 288 287 286 286
330 330 330 328 329 329 330 325 320 317 315 315 314 311 306 302 299 296 296 298 298 294 292 289 286 285 287 287 288 288 288 286 287 288 291 291 291 291 289 288 287 286 287
322 323 324 325 324 325 325 323 319 318 317 314 313 310 307 302 299 295 295 295 295 295 292 291 291 291 291 292 289 288 288 287 287 289 290 290 291 291 290 290 290 289 289
314 318 321 323 324 323 324 321 319 316 313 312 312 312 307 302 298 296 294 293 293 293 291 291 293 293 294 294 293 292 291 291 291 291 292 293 293 293 292 291 291 290 289
309 313 315 318 320 321 322 320 318 316 314 314 312 310 309 306 303 302 298 296 296 293 292 292 291 292 294 295 293 293 293 293 292 292 292 292 292 292 292 292 292 291 291
307 310 311 314 315 317 318 317 315 315 314 314 312 310 309 307 304 302 301 300 299 297 294 293 292 293 294 295 294 293 294 294 293 293 293 293 293 293 293 293 293 293 293
303 306 307 309 311 312 312 312 312 311 312 312 311 309 309 308 304 302 300 300 300 298 297 295 293 293 293 294 294 294 294 294 294 294 294 295 295 294 295 295 295 294 294
297 299 301 304 307 308 307 307 308 308 308 308 307 306 306 306 305 303 300 298 297 296 295 295 294 294 294 294 294 294 294 294 294 295 295 295 295 295 296 297 297 296 295
291 293 296 299 302 303 303 303 303 304 305 306 305 303 303 303 303 303 300 298 297 296 295 295 295 294 294 294 294 294 294 294 294 295 295 294 294 294 295 296 297 297 297
286 288 291 294 296 298 299 301 301 301 302 303 303 302 300 301 300 300 300 299 298 297 295 294 294 293 293 294 294 295 294 294 295 295 294 293 294 294 295 295 297 297 297
283 285 287 290 292 294 295 298 298 298 298 300 300 300 299 298 298 298 297 297 296 296 295 293 293 292 292 293 293 294 295 294 293 293 292 293 295 296 296 296 297 298 298
281 283 286 289 291 292 293 295 296 295 296 297 296 296 296 296 296 296 296 296 295 294 292 291 291 291 292 293 294 294 294 293 294 294 294 295 295 295 296 297 297 298 298
282 283 285 288 289 290 291 292 293 294 294 295 295 294 294 295 295 295 294 295 294 294 292 291 291 291 292 293 293 293 293 293 293 293 294 295 296 296 296 297 298 297 297
282 283 284 287 288 288 289 290 291 291 292 293 294 294 294 294 295 295 294 293 293 292 293 292 291 291 292 292 292 293 294 294 295 295 295 295 295 295 295 296 297 298 297
281 284 285 286 286 287 287 288 289 290 291 292 293 294 294 294 295 295 294 293 292 293 293 292 291 291 291 291 292 293 294 295 295 295 295 295 295 295 295 295 296 297 297
280 282 283 284 285 286 286 286 287 288 289 291 292 293 293 294 294 294 292 291 291 292 292 291 290 290 290 291 291 292 293 295 295 295 294 294 294 295 295 295 296 297 297
277 279 281 282 284 285 285 286 286 287 288 289 290 291 292 293 293 293 291 290 290 290 290 289 289 289 291 292 291 292 293 294 294 294 294 294 294 294 295 295 296 296 296
276 277 280 282 283 283 284 285 286 286 287 289 290 290 291 291 291 291 290 290 290 290 289 289 289 290 291 292 291 291 292 293 294 294 294 293 293 294 294 295 296 296 297
275 277 278 280 282 282 283 284 285 286 287 288 289 290 290 289 289 290 289 288 289 290 291 291 290 291 292 292 292 292 292 291 292 293 293 292 292 292 293 294 296 296 296
275 276 277 279 281 282 283 283 283 284 286 286 287 289 288 288 289 289 289 289 289 290 291 291 290 291 292 293 293 292 292 291 291 291 292 292 291 291 292 293 294 294 294
274 276 277 279 280 281 282 282 283 284 285 286 287 288 288 288 289 289 289 289 289 291 292 292 292 291 292 293 292 291 291 291 292 292 292 291 290 290 290 291 292 293 293
274 275 276 278 279 280 281 282 283 284 285 286 287 287 288 288 289 289 288 288 290 292 293 293 293 292 291 292 292 291 291 291 291 291 291 291 289 289 289 290 291 291 291
Height
5893 5891 5890 5889 5887 5886 5884 5883 5881 5880 5879 5878 5877 5876 5875 5874 5873 5872 5872 5871 5870 5869 5869 5868 5867 5866 5866 5865 5864 5863 5862 5861 5861 5859 5858 5856 5855 5854 5852 5850 5849 5847 5846
5892 5890 5888 5887 5886 5884 5882 5881 5879 5878 5877 5876 5874 5873 5872 5871 5870 5869 5868 5867 5866 5865 5864 5864 5863 5862 5861 5860 5859 5858 5857 5856 5855 5854 5852 5850 5849 5848 5846 5844 5842 5841 5839
5890 5889 5887 5885 5884 5882 5880 5879 5877 5876 5875 5873 5872 5871 5869 5868 5867 5865 5864 5863 5862 5861 5860 5859 5858 5857 5856 5856 5855 5853 5852 5851 5849 5848 5846 5845 5843 5841 5839 5837 5836 5834 5832
5889 5887 5885 5884 5882 5880 5878 5876 5875 5874 5872 5871 5869 5868 5867 5865 5863 5862 5861 5859 5858 5857 5856 5855 5854 5853 5852 5851 5850 5848 5847 5845 5844 5842 5841 5838 5837 5835 5832 5831 5829 5827 5825
5887 5885 5884 5882 5880 5878 5876 5874 5872 5871 5870 5868 5866 5865 5863 5862 5860 5859 5857 5856 5854 5853 5852 5851 5850 5848 5847 5846 5845 5843 5842 5840 5838 5836 5834 5832 5830 5828 5826 5824 5822 5820 5818
5885 5883 5881 5880 5878 5876 5874 5872 5870 5869 5867 5865 5863 5861 5860 5858 5857 5855 5854 5852 5851 5849 5848 5846 5845 5844 5842 5841 5839 5838 5836 5834 5832 5830 5828 5826 5824 5822 5819 5817 5815 5813 5811
5883 5881 5879 5877 5875 5873 5871 5869 5868 5866 5864 5862 5860 5858 5856 5854 5853 5851 5849 5848 5846 5845 5843 5842 5840 5839 5837 5836 5834 5832 5830 5828 5826 5825 5822 5820 5818 5815 5813 5810 5808 5806 5804
5880 5878 5876 5874 5872 5870 5868 5866 5864 5862 5861 5858 5856 5854 5852 5850 5848 5847 5845 5843 5842 5840 5839 5837 5835 5834 5832 5830 5828 5826 5824 5822 5820 5818 5816 5814 5811 5809 5806 5804 5801 5798 5796
5877 5875 5873 5871 5869 5867 5865 5863 5861 5859 5857 5855 5852 5850 5848 5846 5844 5842 5840 5839 5837 5835 5833 5832 5830 5828 5826 5824 5822 5820 5818 5816 5813 5811 5809 5807 5804 5801 5799 5796 5793 5791 5788
5873 5871 5869 5867 5865 5863 5861 5859 5857 5854 5852 5850 5848 5846 5844 5841 5839 5837 5836 5834 5832 5830 5828 5826 5824 5822 5820 5818 5816 5814 5812 5809 5807 5804 5802 5799 5797 5794 5791 5788 5785 5782 5780
5868 5866 5865 5863 5861 5859 5857 5854 5852 5850 5848 5845 5843 5841 5839 5837 5834 5832 5830 5828 5826 5824 5822 5820 5818 5816 5814 5812 5809 5807 5805 5802 5799 5797 5794 5792 5789 5786 5783 5780 5777 5774 5771
5863 5861 5859 5858 5856 5854 5852 5849 5847 5845 5842 5840 5838 5836 5833 5831 5829 5827 5824 5822 5820 5818 5816 5814 5811 5809 5807 5805 5802 5800 5797 5795 5792 5789 5787 5784 5781 5778 5775 5772 5769 5765 5762
5857 5855 5853 5852 5850 5848 5846 5844 5841 5839 5836 5834 5832 5829 5827 5825 5823 5821 5818 5816 5813 5811 5809 5806 5804 5802 5800 5797 5795 5792 5790 5787 5784 5781 5779 5776 5773 5770 5767 5763 5760 5756 5753
5849 5848 5846 5845 5843 5841 5839 5837 5835 5832 5830 5827 5825 5823 5820 5818 5816 5814 5811 5809 5806 5804 5801 5799 5797 5794 5792 5789 5787 5784 5781 5779 5776 5773 5770 5767 5764 5761 5758 5755 5751 5748 5744
5841 5840 5839 5837 5836 5834 5832 5830 5828 5825 5823 5821 5818 5816 5813 5811 5809 5806 5804 5801 5799 5796 5794 5791 5789 5787 5784 5781 5779 5776 5773 5770 5767 5765 5762 5759 5755 5752 5749 5746 5743 5739 5736
5833 5832 5830 5829 5827 5826 5824 5822 5819 5817 5815 5813 5810 5808 5806 5803 5801 5798 5796 5793 5791 5788 5786 5783 5781 5778 5776 5773 5770 5768 5765 5762 5759 5756 5753 5750 5747 5743 5740 5737 5734 5730 5727
5824 5823 5821 5820 5819 5817 5815 5813 5811 5809 5807 5805 5802 5800 5797 5795 5792 5790 5787 5785 5782 5780 5777 5774 5772 5770 5767 5764 5762 5759 5756 5753 5750 5747 5744 5741 5738 5735 5731 5728 5724 5721 5718
5815 5813 5812 5811 5809 5808 5806 5804 5802 5800 5798 5796 5793 5791 5789 5786 5784 5781 5778 5776 5773 5771 5768 5765 5763 5760 5758 5755 5752 5750 5747 5744 5741 5738 5735 5732 5729 5726 5722 5719 5715 5712 5709
5805 5804 5802 5801 5800 5798 5797 5795 5793 5791 5789 5787 5784 5782 5780 5777 5775 5772 5769 5767 5764 5762 5759 5756 5754 5751 5749 5746 5743 5741 5738 5735 5732 5729 5726 5722 5719 5716 5713 5710 5706 5703 5700
5795 5794 5793 5791 5790 5788 5787 5785 5783 5781 5779 5777 5775 5773 5770 5768 5765 5763 5760 5758 5755 5753 5750 5747 5745 5742 5739 5737 5734 5731 5728 5725 5722 5719 5716 5713 5710 5707 5704 5701 5698 5695 5692
5785 5784 5783 5781 5780 5778 5777 5775 5773 5771 5769 5767 5765 5763 5761 5758 5756 5753 5750 5748 5746 5743 5740 5738 5735 5732 5730 5727 5724 5721 5719 5716 5713 5710 5707 5704 5701 5698 5695 5692 5689 5686 5684
5774 5773 5772 5771 5770 5768 5767 5765 5763 5761 5759 5757 5755 5753 5750 5748 5746 5743 5741 5738 5736 5733 5731 5728 5725 5723 5720 5717 5714 5712 5709 5706 5703 5700 5697 5695 5692 5689 5686 5683 5681 5678 5675
5762 5762 5761 5760 5759 5757 5756 5754 5753 5751 5749 5747 5745 5743 5740 5738 5735 5733 5731 5728 5726 5723 5720 5718 5715 5712 5710 5707 5704 5701 5699 5696 5693 5691 5688 5685 5682 5680 5677 5675 5672 5669 5666
5751 5751 5750 5749 5748 5747 5745 5744 5742 5740 5739 5737 5735 5732 5730 5728 5725 5723 5721 5718 5715 5713 5710 5707 5705 5702 5699 5697 5694 5691 5689 5686 5683 5681 5678 5675 5673 5670 5668 5665 5663 5660 5658
5740 5740 5739 5738 5737 5736 5735 5733 5732 5730 5728 5727 5724 5722 5720 5717 5715 5713 5710 5708 5705 5703 5700 5697 5694 5692 5689 5686 5683 5681 5678 5676 5673 5671 5668 5665 5663 5661 5658 5656 5653 5651 5649
5730 5729 5728 5727 5726 5725 5724 5723 5721 5720 5718 5716 5714 5711 5709 5707 5705 5702 5700 5698 5695 5693 5690 5687 5684 5681 5679 5676 5673 5671 5668 5666 5663 5660 5658 5655 5653 5651 5648 5646 5644 5642 5639